     2              OBSERVATION DATA    GPS                 RINEX VERSION / TYPE
teqc 1997Sep28 Simon McClusky 98/06/22                      PGM / RUN BY / DATE
                                                            COMMENT
BIT 2 OF LLI FLAGS DATA COLLECTED UNDER A-S CONDITION       COMMENT
BIT 2 OF LLI FLAGS DATA COLLECTED UNDER A-S CONDITION       COMMENT
Original Marker Name: KMED                                  COMMENT
Campaign Name: China Lake May 1998                          COMMENT
4-Character Station Name: GS08                              COMMENT
6-Character Antenna Code: ASHGD3                            COMMENT
Vertical Measurement Point: TGP                             COMMENT
Vertical Offset to Rinex Ref. Point: 0.0640                 COMMENT
Radial Measurement Point: OOH                               COMMENT
Radial Offset to Rinex Ref. Point: 0.1737                   COMMENT
Antenna Height from Field Measurement: 1.1100 m             COMMENT
Additional Antenna Identification Info.:                    COMMENT
The Whopper (700718AB)                                      COMMENT
Original XYZ: -2436056.0200 -4555536.6300 3731276.5700      COMMENT
New XYZ position is based on association with SCEC monument COMMENT
E1F1W1J5+0011. Position of that monument is believed to be  COMMENT
valid to within 1 m horizontally; vertical accuracy         COMMENT
should be no worse than 3-times this value.                 COMMENT
                                                            COMMENT
Revised Rinex header created by UCSD GPS archive for        COMMENT
GSAC on 31-Jul-2000 (2000:213) 17:45:59 GMT                 COMMENT
For assistance contact dagnew@ucsd.edu                      COMMENT
or anderson@python.ucsd.edu                                 COMMENT
                                                            COMMENT
3187 S                                                      MARKER NAME
KEN US NATIONAL IMAGERY MAPPING AGENCY                      OBSERVER / AGENCY
448 ASHTECH Z-XII3 1G00                                     REC # / TYPE / VERS
812 ASHTECH GEODETIC III                                    ANT # / TYPE
 -2436056.5893 -4555502.9878  3731342.1307                  APPROX POSITION XYZ
        1.0323        0.0000        0.0000                  ANTENNA: DELTA H/E/N
     1     1     0                                          WAVELENGTH FACT L1/2
     5    L1    L2    C1    P2    P1                        # / TYPES OF OBSERV
    30                                                      INTERVAL
  1998     5    21    15     3   30.000000                  TIME OF FIRST OBS
  1998     5    21    21    30    0.000000                  TIME OF LAST OBS
                                                            END OF HEADER
 98  5 21 15  3 30.0000000  0  7G27G 2G26G15G 7G 9G13
                                  19225178.187
                                  19089905.436
      5395.58657                  20398826.899    20398838.393
                                  21352648.547
    -14285.64859
     -9137.09957                  18121521.529
  18121530.466    18121523.003    22735229.979    21348503.790
 98  5 21 15  4 30.0000000  0  7G27G 2G26G15G 7G 9G13
                                  21651928.024
                                  21493424.987
     25917.05149     18717.54747  22800421.425    22800431.310
                                  22800424.459    23760191.429
    -35205.01759    -25437.88857  20515879.760    20515889.249    20515882.120
   -209489.98144                  25095335.199    25095293.446
    294331.65749    213828.44446  23785852.535    23785860.043    23785853.088
 98  5 21 15  5  0.0000000  0  8G27G 2G26G19G15G 7G 9G13
                                  21666248.890
     58236.59349     10680.92257  21496050.761    21496061.221    21496054.285
     35188.98959     25942.44057  22802190.603    22802195.672    22802188.888
    200516.56755                  24706521.824    24706552.027
     15793.20946                  23764957.432    23764964.160
    -45042.90149    -33103.76047  20514006.535    20514017.106    20514010.094
   -385840.38049   -287828.64145  25076203.904    25076215.857    25076208.644
    396847.25759    293710.67156  23805357.762    23805368.247    23805360.912
 98  5 21 15  5 30.0000000  0  8G27G 2G26G19G15G 7G 9G13
                                  21680635.304
     72189.34759     21553.18247  21498706.919    21498716.217    21498709.407
     44979.93949     33571.73847  22804051.644    22804058.874    22804052.045
    389666.45349    281582.05345  24726349.194    24726344.427    24726338.255
    124725.31749     35714.59756  23769819.489    23769826.038    23769818.007
    -54423.40349    -40413.23947  20512222.706    20512231.989    20512225.042
   -486367.45259   -366161.44755  25057075.696    25057086.410    25057077.943
    499422.65549    373639.48046  23824878.161    23824887.610    23824880.454
 98  5 21 15  6  0.0000000  0  8G27G 2G26G19G15G 7G 9G13
                                  21695101.413
     86298.59149     32547.38447  21501392.314    21501401.040    21501394.368
     55280.65849     41598.27047  22806011.036    22806019.106    22806012.256
    493828.06049    362746.77055  24746162.441    24746170.119    24746158.736
    150875.49259     56091.33446  23774794.629    23774802.304    23774793.750
    -63315.24049    -47341.93547  20510531.221    20510539.888    20510532.993
   -586859.55349   -444466.97245  25037953.592    25037963.219    25037955.166
    602074.85249    453628.15646  23844411.819    23844421.619    23844414.520
 98  5 21 15  6 30.0000000  0  8G27G 2G26G19G15G 7G 9G13
     37344.04757                  21709648.064    21709656.238
    100567.71249     43666.16747  21504107.907    21504116.340    21504109.739
     66110.08149     50036.77047  22808071.767    22808079.924    22808073.090
    598137.86459    444026.91345  24766008.495    24766018.952    24766009.516
    177618.98549     76930.38946  23779882.841    23779891.411    23779882.828
    -71712.21849    -53885.02947  20508933.412    20508942.048    20508935.148
   -687291.20249   -522725.39645  25018842.433    25018851.660    25018843.612
    704808.04349    533679.94346  23863961.924    23863971.079    23863963.981
 98  5 21 15  7  0.0000000  0  8G27G 2G26G19G15G 7G 9G13
    608612.64059     97241.21447  21724275.310    21724283.673    21724276.068
    114999.66449     54911.83147  21506854.322    21506862.644    21506856.033
     77491.63449     58905.50147  22810237.544    22810245.769    22810238.876
    702614.42049    525437.23545  24785889.932    24785898.761    24785891.510
    204960.09649     98235.11946  23785085.448    23785094.109    23785085.628
    -79616.92849    -60044.53947  20507429.236    20507437.913    20507430.992
   -787650.23849   -600927.20245  24999744.288    24999753.768    24999745.635
    807609.82849    613785.17345  23883524.859    23883533.612    23883526.522
 98  5 21 15  7 30.0000000  0  8G27G 2G26G19G15G 7G 9G13
    685940.47649    157496.63347  21738989.758    21738998.681    21738990.990
    129622.47749     66306.21847  21509637.026    21509645.308    21509638.651
     89451.62249     68224.96447  22812513.391    22812521.572    22812514.806
    807294.63249    607006.06645  24805809.763    24805819.471    24805811.198
    232925.73949    120026.51846  23790406.508    23790415.630    23790407.284
    -86992.89449    -65792.03347  20506025.830    20506034.355    20506027.370
   -887908.04349   -679050.16245  24980666.388    24980675.340    24980667.287
    910500.90749    693959.98545  23903104.791    23903113.219    23903106.262
 98  5 21 15  8  0.0000000  0  9G27G 2G26G 4G19G15G 7G 9G13
    763727.65649    218109.98547  21753792.423    21753801.085    21753793.525
    144455.63949     77864.51347  21512459.678    21512468.017    21512461.325
    101991.09049     77995.97747  22814899.426    22814907.707    22814900.991
                                  24808729.784
    912175.50949    688731.29745  24825767.911    24825777.952    24825769.323
    261522.78249    142309.90746  23795848.178    23795857.449    23795849.160
    -93855.15749    -71139.24847  20504720.055    20504728.544    20504721.518
   -988053.04549   -757085.22645  24961609.397    24961618.159    24961610.180
   1013468.76449    774194.63246  23922699.029    23922707.474    23922700.415
 98  5 21 15  8 30.0000000  0  9G27G 2G26G 4G19G15G 7G 9G13
    841985.24249    279089.88747  21768684.225    21768693.073    21768685.616
    159507.22049     89593.00247  21515324.064    21515332.341    21515325.590
    115131.00349     88234.86147  22817399.732    22817408.165    22817401.375
                                  24788937.475
   1017248.68149    770606.37245  24845761.574    24845772.256    24845763.626
    290759.19949    165091.52246  23801411.442    23801421.171    23801412.864
   -100210.82849    -76091.71347  20503510.671    20503519.151    20503512.104
  -1088081.76449   -835029.61345  24942574.087    24942583.304    24942575.258
   1116519.06449    854493.50046  23942308.406    23942317.311    23942310.236
 98  5 21 15  9  0.0000000  0  9G27G 2G26G 4G19G15G 7G 9G13
    920726.72549    340446.85547  21783668.100    21783677.134    21783669.754
    174789.75149    101501.45147  21518232.480    21518240.609    21518233.822
    128867.18749     98938.36947  22820013.517    22820022.189    22820015.416
                                  24769134.671
   1122516.64549    852633.33945  24865793.685    24865804.021    24865795.372
    320642.91049    188377.49346  23807099.026    23807107.912    23807099.688
   -106044.24049    -80637.22847  20502400.688    20502409.137    20502402.066
  -1187999.28949   -912887.39645  24923560.722    24923569.626    24923561.560
   1219670.54149    934871.22645  23961936.641    23961946.560    23961939.461
 98  5 21 15  9 30.0000000  0  9G27G 2G26G 4G19G15G 7G 9G13
    999948.30749    402177.92947  21798743.341    21798752.492    21798745.196
    190322.29549    113604.72047  21521188.297    21521196.439    21521189.624
    143195.52449    110103.30147  22822740.042    22822748.842    22822742.074
   -211476.20845                  24749343.370    24749351.613
   1227974.62849    934808.12145  24885860.953    24885872.860    24885863.070
    351180.88849    212173.29846  23812909.938    23812919.079    23812910.828
   -111355.98649    -84776.24847  20501389.911    20501398.439    20501391.315
  -1287805.57049   -990658.46145  24904568.158    24904577.126    24904569.063
   1322934.51449   1015336.60245  23981586.894    23981596.998    23981590.040
 98  5 21 15 10  0.0000000  0  9G27G 2G26G 4G19G15G 7G 9G13
   1079634.69349    464271.18947  21813907.325    21813916.328    21813909.059
    206107.72549    125905.03847  21524192.398    21524200.442    21524193.566
    158113.29549    121727.52647  22825578.913    22825587.586    22825580.900
   -721647.69849   -292481.94845  24729559.270    24729568.382    24729559.706
   1333613.39949   1017123.98245  24905962.643    24905975.003    24905965.673
    382368.72649    236475.49946  23818844.240    23818853.786    23818845.786
   -116162.09449    -88521.25947  20500475.352    20500483.907    20500476.818
  -1387504.50449  -1068345.90645  24885596.066    24885605.154    24885596.940
   1426291.02549   1095874.08745  24001255.000    24001264.979    24001258.074
 98  5 21 15 10 30.0000000  0  9G27G 2G26G 4G19G15G 7G 9G13
   1159785.49049    526726.32447  21829159.785    21829168.554    21829161.234
    222127.24549    138387.76547  21527240.786    21527248.961    21527241.992
    173615.67049    133807.30147  22828528.903    22828537.654    22828531.044
   -825565.03249   -373456.38555  24709784.198    24709794.136    24709786.095
   1439434.55549   1099582.04345  24926100.663    24926112.152    24926102.771
    414199.70149    261278.85346  23824901.984    23824910.994    23824903.210
   -120454.61549    -91866.08147  20499658.508    20499667.057    20499660.002
  -1487099.33349  -1145952.25845  24866643.639    24866652.735    24866644.704
   1529742.84949   1176485.82945  24020942.135    24020951.104    24020944.338
 98  5 21 15 11  0.0000000  0  9G27G 2G26G 4G19G15G 7G 9G13
   1240409.69249    589550.35147  21844501.977    21844510.849    21844503.455
    238405.47449    151072.08547  21530338.351    21530346.704    21530339.652
    189709.23049    146347.72347  22831591.357    22831600.289    22831593.533
   -929421.59159   -454383.46345  24690020.787    24690031.217    24690022.098
   1545456.68049   1182196.35045  24946276.048    24946288.671    24946277.723
    446685.77049    286592.64146  23831083.617    23831093.103    23831085.080
   -124220.79349    -94800.76147  20498941.805    20498950.362    20498943.293
  -1586558.68449  -1223453.00145  24847717.302    24847726.318    24847718.254
   1633299.82649   1257179.49445  24040648.717    24040657.520    24040650.680
 98  5 21 15 11 30.0000000  0  9G27G 2G26G 4G19G15G 7G 9G13
   1321509.85149    652745.26147  21859934.925    21859943.720    21859936.327
    254948.19649    163962.50247  21533486.316    21533494.714    21533487.648
    206404.98249    159357.37647  22834768.402    22834777.378    22834770.510
  -1033215.74349   -535261.96545  24670268.791    24670279.681    24670270.791
   1651675.86449   1264964.53345  24966489.641    24966501.001    24966491.030
    479829.17049    312418.62446  23837390.522    23837400.265    23837391.845
   -127461.39449    -97325.90847  20498324.969    20498333.657    20498326.649
  -1685859.39949  -1300830.11245  24828820.102    24828830.022    24828821.839
   1736950.19749   1337945.98445  24060373.567    24060381.523    24060374.761
 98  5 21 15 12  0.0000000  0  9G27G 2G26G 4G19G15G 7G 9G13
   1403112.95049    716332.05847  21875463.764    21875472.374    21875464.897
    271744.68949    177050.66547  21536682.678    21536691.032    21536683.958
    223704.85349    172837.78847  22838060.423    22838069.348    22838062.636
  -1136960.80749   -616102.17645  24650527.051    24650537.643    24650528.683
   1758098.10949   1347890.90245  24986740.046    24986752.389    24986742.312
    513632.85549    338759.14446  23843823.545    23843832.757    23843824.483
   -130154.46249    -99424.40347  20497812.548    20497821.107    20497814.176
  -1784982.78649  -1378069.12145  24809956.978    24809967.395    24809959.230
   1840695.94249   1418786.73945  24080115.698    24080123.852    24080116.904
 98  5 21 15 12 30.0000000  0  9G27G 2G26G 4G19G15G 7G 9G13
   1485232.63049    780321.39747  21891090.647    21891099.238    21891091.783
    288803.67749    190343.36347  21539928.927    21539937.308    21539930.195
    241614.48749    186793.33647  22841468.455    22841477.514    22841470.694
  -1240655.62749   -696903.25345  24630794.635    24630805.247    24630796.457
   1864737.66849   1430986.43345  25007033.065    25007045.876    25007035.557
    548108.10349    365622.97946  23850383.925    23850393.016    23850385.019
   -132274.32749   -101076.24047  20497409.161    20497417.649    20497410.718
  -1883916.96849  -1455160.66745  24791130.541    24791140.927    24791132.576
   1944559.71249   1499719.48545  24099880.353    24099888.639    24099881.602
 98  5 21 15 13  0.0000000  0  9G27G 2G26G 4G19G15G 7G 9G13
   1567844.03549    844693.89647  21906811.180    21906819.713    21906812.300
    306117.76149    203834.84547  21543223.659    21543232.079    21543224.956
    260117.48549    201211.23247  22844989.519    22844998.623    22844991.692
  -1344320.34949   -777680.86745  24611067.698    24611078.484    24611069.538
   1971578.92649   1514239.24545  25027365.158    25027377.165    25027367.025
    583237.69149    392996.68046  23857068.826    23857077.972    23857069.983
   -133833.59249   -102291.25347  20497112.267    20497120.966    20497114.015
  -1982701.23549  -1532135.23645  24772332.769    24772343.368    24772334.523
   2048508.10849   1580718.16045  24119660.471    24119669.548    24119662.458
 98  5 21 15 13 30.0000000  0  9G27G 2G26G 4G19G15G 7G 9G13
   1650933.88749    909439.21847  21922622.875    21922631.146    21922623.859
    323660.51949    217504.51447  21546561.853    21546570.329    21546563.225
    279204.47149    216084.20647  22848621.708    22848630.765    22848623.911
  -1447977.85649   -858452.87445  24591341.991    24591353.267    24591344.206
   2078616.60249   1597645.12045  25047733.705    25047745.868    25047735.542
    619012.19249    420872.88046  23863876.563    23863885.964    23863877.627
   -134829.73149   -103067.46447  20496922.754    20496931.501    20496924.451
  -2081375.33049  -1609024.15345  24753555.530    24753566.320    24753557.521
   2152519.92149   1661766.25045  24139453.536    24139462.506    24139455.357
 98  5 21 15 14  0.0000000  0  9G27G 2G26G 4G19G15G 7G 9G13
   1734485.55449    974544.39747  21938522.074    21938530.500    21938523.243
    341440.78249    231359.25247  21549945.473    21549953.813    21549946.758
    298861.07749    231401.02547  22852362.306    22852371.307    22852364.381
  -1551622.41749   -939214.81645  24571619.227    24571630.241    24571621.081
   2185858.75249   1681210.33545  25068140.957    25068153.802    25068143.201
    655428.75449    449249.36846  23870806.206    23870816.077    23870807.398
   -135268.78049   -103409.57647  20496839.379    20496847.967    20496840.856
  -2179950.89649  -1685836.24745  24734796.710    24734807.903    24734799.182
   2256593.99849   1742862.85145  24159258.770    24159267.230    24159260.196
 98  5 21 15 14 30.0000000  0  9G27G 2G26G 4G19G15G 7G 9G13
   1818476.75149   1039992.05947  21954505.088    21954513.511    21954506.245
    359466.89249    245405.55247  21553375.821    21553384.099    21553377.074
    319080.83449    247156.66647  22856209.905    22856219.058    22856211.967
  -1655248.02949  -1019961.95845  24551899.264    24551910.563    24551901.625
   2293297.24849   1764928.38945  25088585.752    25088599.147    25088587.527
    692480.90349    478121.14946  23877856.975    23877866.924    23877858.232
   -135168.73149   -103331.62347  20496858.433    20496867.029    20496859.907
  -2278441.89049  -1762582.45845  24716055.470    24716065.600    24716056.971
   2360726.93249   1824005.28245  24179075.169    24179083.182    24179076.178
 98  5 21 15 15  0.0000000  0  9G27G 2G26G 4G19G15G 7G 9G13
   1902901.65749   1105777.68247  21970570.305    21970579.086    21970571.742
    377729.93649    259636.48947  21556851.179    21556859.415    21556852.467
    339863.56049    263350.98947  22860165.201    22860173.922    22860166.885
  -1758853.90049  -1100693.73945  24532183.491    24532194.816    24532185.992
   2400915.34549   1848786.53945  25109065.252    25109077.701    25109066.722
    730165.57649    507485.83046  23885028.304    23885037.899    23885029.486
   -134545.18649   -102845.74047  20496977.162    20496985.679    20496978.537
  -2376845.91049  -1839260.84745  24697329.890    24697339.924    24697331.328
   2464908.73449   1905185.83645  24198900.044    24198908.350    24198901.321
 98  5 21 15 15 30.0000000  0  9G27G 2G26G 4G19G15G 7G 9G13
   1987743.50649   1171888.19547  21986715.253    21986724.008    21986716.523
    396207.99149    274034.96647  21560367.414    21560375.687    21560368.720
    361183.82049    279964.17147  22864222.348    22864231.036    22864224.026
  -1862445.52149  -1181414.41345  24512470.877    24512481.920    24512473.122
   2508683.55849   1932761.67645  25129572.197    25129585.685    25129574.472
    768463.15249    537328.08146  23892316.212    23892325.531    23892317.383
   -133434.12449   -101979.98447  20497188.626    20497197.095    20497189.981
  -2475147.14849  -1915859.15545  24678623.453    24678633.816    24678625.272
   2569130.98349   1986397.88545  24218732.921    24218741.136    24218734.301
 98  5 21 15 16  0.0000000  0  9G27G 2G26G 4G19G15G 7G 9G13
   2073005.99149   1238326.45747  22002940.186    22002948.953    22002941.337
    414913.73149    288610.85847  21563926.937    21563935.363    21563928.329
    383051.98749    297004.29347  22868383.611    22868392.478    22868385.493
  -1965997.81049  -1262104.42845  24492765.217    24492776.547    24492767.662
   2616595.84049   2016848.88245  25150106.708    25150121.359    25150109.417
    807379.91249    567652.77046  23899722.076    23899730.977    23899723.090
   -131847.63349   -100743.75547  20497490.500    20497499.020    20497491.895
  -2573313.68749  -1992352.55745  24659943.343    24659953.332    24659944.919
   2673416.40849   2067659.18245  24238577.950    24238585.982    24238579.295
 98  5 21 15 16 30.0000000  0  9G27G 2G26G 4G19G15G 7G 9G13
   2158686.65249   1305090.57847  22019244.278    22019253.495    22019245.865
    433816.61149    303340.36647  21567524.070    21567532.520    21567525.482
    405483.34549    314483.26447  22872651.815    22872661.081    22872654.063
  -2069508.26049  -1342761.86945  24473067.707    24473079.086    24473070.269
   2724634.12149   2101034.42345  25170666.731    25170679.781    25170668.725
    846905.73949    598452.08546  23907243.141    23907252.570    23907244.638
   -129798.63249    -99147.13147  20497880.437    20497888.914    20497881.823
  -2671353.72649  -2068747.39345  24641287.113    24641296.755    24641288.574
   2777760.62649   2148966.29945  24258433.474    24258441.931    24258435.424
 98  5 21 15 17  0.0000000  0  9G27G 2G26G 4G19G15G 7G 9G13
   2244786.39549   1372181.26947  22035628.341    22035637.788    22035630.231
    452914.52949    318221.84947  21571158.333    21571166.735    21571159.727
    428473.77449    332397.87047  22877026.858    22877035.994    22877029.014
  -2172969.63449  -1423381.06145  24453380.098    24453390.702    24453382.191
   2832794.23649   2185314.90845  25191249.345    25191261.663    25191251.036
    887036.17549    629722.54546  23914879.226    23914889.052    23914881.155
   -127292.77549    -97194.51647  20498357.164    20498365.725    20498358.719
  -2769250.47349  -2145030.54245  24622658.951    24622667.478    24622659.308
   2882150.92249   2230309.26645  24278298.039    24278306.803    24278300.272
 98  5 21 15 17 30.0000000  0  9G27G 2G26G 4G19G15G 7G 9G13
   2331316.26849   1439607.11747  22052094.644    22052103.936    22052096.413
    472229.58949    333272.53747  21574833.896    21574842.266    21574835.292
    452031.06149    350754.18247  22881510.311    22881518.732    22881511.848
  -2276361.69849  -1503946.22745  24433705.419    24433715.894    24433707.464
   2941092.60649   2269703.05045  25211856.834    25211870.287    25211859.284
    927781.11049    661471.85046  23922633.213    23922642.449    23922634.701
   -124308.13249    -94868.82347  20498925.256    20498933.688    20498926.739
  -2866980.07649  -2221183.38145  24604060.912    24604070.311    24604061.881
   2986597.37949   2311696.05245  24298174.040    24298182.205    24298175.815
 98  5 21 15 18  0.0000000  0  9G27G 2G26G 4G19G15G 7G 9G13
   2418304.11349   1507389.81847  22068647.961    22068657.216    22068649.660
    491791.22349    348515.35747  21578556.403    21578564.736    21578557.791
    476182.41649    369573.40847  22886106.039    22886114.565    22886107.714
  -2379661.35449  -1584439.39545  24414048.712    24414058.756    24414050.154
   3049553.87049   2354218.06945  25232497.604    25232510.172    25232499.242
    969164.89449    693718.94146  23930508.803    23930517.482    23930509.908
   -120807.39949    -92140.97747  20499591.183    20499599.894    20499592.906
  -2964519.89749  -2297188.39945  24585499.022    24585509.011    24585500.696
   3091112.76849   2393136.49845  24318063.299    24318071.007    24318064.499
 98  5 21 15 18 30.0000000  0  9G27G 2G26G 4G19G15G 7G 9G13
   2505763.58849   1575540.02647  22085290.326    22085300.259    22085292.657
    511620.41149    363966.66447  21582329.769    21582338.114    21582331.196
    500919.83749    388849.31447  22890813.683    22890822.012    22890815.072
  -2482867.98049  -1664860.06245  24394409.459    24394419.293    24394410.361
   3158182.82949   2438863.86844  25253169.285    25253180.432    25253170.685
   1011192.81149    726467.94746  23938506.599    23938515.433    23938507.677
   -116764.20949    -88990.43547  20500360.667    20500369.314    20500362.290
  -3061858.51949  -2373036.66045  24566976.435    24566985.968    24566977.714
   3195689.85249   2474625.07445  24337963.479    24337971.686    24337964.938
 98  5 21 15 19  0.0000000  0  9G27G 2G26G 4G19G15G 7G 9G13
   2593679.35049   1644045.77747  22102020.240    22102030.105    22102022.423
    531729.69049    379636.22347  21586156.564    21586164.777    21586157.909
    526202.01249    408549.69947  22895624.666    22895633.010    22895626.031
  -2586003.66749  -1745225.43545  24374782.238    24374793.331    24374784.198
   3266974.62049   2523636.55545  25273871.393    25273882.859    25273873.064
   1053859.43549    759714.61546  23946625.858    23946634.833    23946626.978
   -112169.12449    -85409.85647  20501235.345    20501243.767    20501236.762
  -3158998.12649  -2448729.83045  24548490.416    24548500.836    24548492.535
   3300310.88349   2556147.84945  24357870.646    24357880.504    24357873.466
 98  5 21 15 19 30.0000000  0  9G27G 2G26G 4G19G15G 7G 9G13
   2682084.87249   1712933.15647  22118843.018    22118853.080    22118845.444
    552154.56849    395551.71147  21590043.218    21590051.500    21590044.667
    552071.61249    428707.81347  22900547.039    22900555.821    22900548.914
  -2689024.84449  -1825501.62445  24355178.404    24355189.060    24355179.952
   3375974.25449   2608571.09245  25294612.711    25294625.638    25294615.376
   1097207.38149    793492.20346  23954874.529    23954883.805    23954875.710
   -106981.30249    -81367.39547  20502222.462    20502230.961    20502224.040
  -3255915.13649  -2524249.54046  24530047.390    24530058.132    24530049.861
   3405014.60449   2637735.07045  24377795.248    24377805.016    24377797.933
 98  5 21 15 20  0.0000000  0  8G27G 2G26G 4G15G 7G 9G13
   2771001.67949   1782218.94647  22135763.515    22135773.363    22135765.821
    572906.44249    411721.99547  21593992.335    21594000.453    21593993.670
    578543.79849    449335.47747  22905584.626    22905593.280    22905586.420
  -2791900.06249  -1905664.05345  24335601.692    24335612.566    24335603.436
   1141255.69349    827815.54846  23963256.142    23963266.038    23963257.787
   -101193.38549    -76857.33347  20503323.895    20503332.402    20503325.459
  -3352607.12249  -2599593.90046  24511647.987    24511658.254    24511650.056
   3509816.96649   2719399.18445  24397739.421    24397748.202    24397741.176
 98  5 21 15 20 30.0000000  0  8G27G 2G26G 4G15G 7G 9G13
   2860436.97649   1851908.74847  22152783.030    22152792.306    22152784.842
    593986.26849    428147.82847  21598003.689    21598011.782    21598005.065
    605631.37849    470442.66947  22910739.083    22910747.813    22910741.046
  -2894616.34349  -1985702.65845  24316055.054    24316066.277    24316057.221
   1186014.66749    862692.66946  23971773.806    23971783.387    23971775.182
    -94801.34049    -71876.52047  20504540.249    20504548.784    20504541.847
  -3449075.48749  -2674764.02746  24493291.329    24493300.979    24493292.577
   3614725.05749   2801145.62745  24417703.042    24417711.888    24417704.463
 98  5 21 15 21  0.0000000  0  8G27G 2G26G 4G15G 7G 9G13
   2950386.03249   1921998.88447  22169899.647    22169909.016    22169901.645
    615391.80849    444827.46547  21602077.132    21602085.137    21602078.469
    633359.71449    492049.15547  22916015.666    22916024.306    22916017.578
  -2997158.22449  -2065605.37345  24296542.230    24296552.907    24296544.103
   1231487.05149    898125.64246  23980426.697    23980436.504    23980428.204
    -87818.72949    -66435.52347  20505868.954    20505877.477    20505870.561
  -3545330.70349  -2749768.08346  24474974.688    24474984.252    24474975.955
   3719737.44449   2882973.38745  24437685.778    24437694.949    24437687.685
 98  5 21 15 21 30.0000000  0  8G27G 2G26G 4G15G 7G 9G13
   3040843.42549   1992485.13347  22187112.942    22187122.505    22187115.191
    637095.92349    461739.75847  21606207.433    21606215.282    21606208.683
    661742.32649    514165.46447  22921416.517    22921425.395    22921418.561
  -3099521.85549  -2145369.17845  24277063.400    24277073.774    24277065.055
   1277650.85549    934097.39646  23989211.147    23989221.241    23989212.810
    -80274.63249    -60557.00347  20507304.568    20507313.060    20507306.104
  -3641383.77449  -2824614.58546  24456695.605    24456705.884    24456697.589
   3824845.62749   2964875.77345  24457687.267    24457696.332    24457689.216
 98  5 21 15 22  0.0000000  0  8G27G 2G26G 4G15G 7G 9G13
   3131797.77149   2063358.61147  22204421.753    22204430.558    22204423.228
    659089.74949    478877.80247  21610392.738    21610400.588    21610394.002
    690769.90549    536784.33347  22926940.462    22926949.273    22926942.368
  -3201730.63049  -2225012.29245  24257613.179    24257623.981    24257615.242
   1324489.55949    970595.05146  23998124.650    23998134.539    23998126.056
    -72172.45949    -54243.62447  20508846.359    20508854.846    20508847.862
  -3737239.30849  -2899307.18845  24438455.281    24438465.140    24438456.845
   3930032.09949   3046839.14745  24477703.501    24477712.802    24477705.593
 98  5 21 15 22 30.0000000  0  8G27G 2G26G 4G15G 7G 9G13
   3223250.49349   2134620.42947  22221824.760    22221833.504    22221826.136
    681392.16449    496256.30547  21614636.631    21614644.646    21614637.968
    720453.90249    559914.70747  22932589.440    22932598.000    22932591.173
  -3303796.61349  -2304544.18045  24238190.465    24238201.275    24238192.705
   1372005.27549   1007620.27346  24007166.576    24007176.713    24007168.152
    -63506.66649    -47491.06147  20510495.283    20510503.886    20510496.883
  -3832879.24849  -2973831.77246  24420255.861    24420265.324    24420257.073
   4035299.86149   3128865.88345  24497734.507    24497744.795    24497737.452
 98  5 21 15 23  0.0000000  0  8G27G 2G26G 4G15G 7G 9G13
   3315163.50149   2206240.91747  22239314.901    22239324.036    22239316.674
    703982.12149    513858.87347  21618935.401    21618943.422    21618936.662
    750764.57049    583533.40547  22938357.140    22938365.978    22938359.125
  -3405745.42549  -2383984.72445  24218790.048    24218801.103    24218792.430
   1420168.35949   1045149.92146  24016332.038    24016341.843    24016333.375
    -54310.10149    -40324.90747  20512245.366    20512253.922    20512246.913
  -3928323.48049  -3048203.88745  24402092.939    24402102.825    24402094.668
   4140625.04449   3210937.35645  24517776.855    24517787.507    24517780.326
 98  5 21 15 23 30.0000000  0  8G27G 2G26G 4G15G 7G 9G13
   3407527.35349   2278212.71847  22256891.214    22256900.390    22256892.983
    726836.08749    531667.16147  21623284.269    21623292.433    21623285.558
    781660.53349    607608.16647  22944236.650    22944245.383    22944238.494
  -3507593.76649  -2463347.00045  24199408.892    24199420.041    24199411.361
   1468963.63849   1083172.16046  24025617.482    24025627.202    24025618.741
    -44597.71049    -32756.80847  20514093.412    20514102.145    20514095.135
  -4023576.98249  -3122427.33945  24383966.910    24383976.761    24383968.534
   4245989.75549   3293039.62245  24537827.857    24537837.813    24537830.689
 98  5 21 15 24  0.0000000  0  8G27G 2G26G 4G15G 7G 9G13
   3500322.43649   2350520.53847  22274549.308    22274558.762    22274551.347
    749933.29149    549664.98547  21627679.500    21627687.726    21627680.804
    813099.95749    632106.39447  22950219.226    22950228.175    22950221.212
  -3609369.38049  -2542652.62045  24180041.652    24180052.824    24180044.195
   1518371.69049   1121671.88846  24035019.244    24035029.175    24035020.778
    -34398.23349    -24809.16247  20516034.352    20516043.098    20516036.062
  -4118661.28749  -3196518.92945  24365874.002    24365883.010    24365874.560
   4351364.09049   3375149.40145  24557880.632    24557890.044    24557882.977
 98  5 21 15 24 30.0000000  0  8G27G 2G26G 4G15G 7G 9G13
   3593535.09249   2423153.73947  22292287.317    22292296.571    22292289.118
    773274.02649    567852.57147  21632121.121    21632129.331    21632122.392
    845070.69549    657018.63847  22956302.836    22956312.040    22956305.058
  -3711058.53549  -2621890.85045  24160691.825    24160702.145    24160693.496
   1568390.14449   1160647.30146  24044537.808    24044547.595    24044539.031
    -23727.41949    -16494.24047  20518064.817    20518073.729    20518066.702
  -4213571.23649  -3270474.68846  24347813.089    24347822.431    24347813.965
   4456749.27449   3457267.60445  24577934.657    24577944.255    24577937.266
 98  5 21 15 25  0.0000000  0  8G27G 2G26G 4G15G 7G 9G13
   3687150.21349   2496100.54247  22310102.224    22310110.994    22310103.465
    796830.22949    586208.05747  21636603.821    21636611.911    21636605.057
    877544.21549    682322.66347  22962482.424    22962491.434    22962484.591
  -3812651.93049  -2701054.44446  24141359.168    24141369.674    24141360.848
   1619009.83349   1200091.21446  24054169.663    24054180.304    24054171.674
    -12587.58549     -7813.85247  20520184.741    20520193.615    20520186.515
  -4308316.24449  -3344301.91546  24329783.050    24329793.197    24329784.603
   4562132.28749   3539384.11145  24597988.696    24597998.360    24597991.144
 98  5 21 15 25 30.0000000  0  8G27G 2G26G 4G15G 7G 9G13
   3781172.67449   2569364.74747  22327993.976    22328002.885    22327995.412
    820601.69749    604731.27847  21641127.328    21641135.458    21641128.624
    910505.47149    708006.74847  22968754.701    22968763.735    22968756.876
  -3914155.20549  -2780147.84346  24122043.251    24122054.194    24122045.383
   1670222.43149   1239997.12946  24063915.321    24063925.765    24063917.048
      -976.04049      1234.10747  20522394.370    20522403.251    20522396.105
  -4402898.78849  -3418002.54746  24311784.041    24311794.640    24311786.076
   4667504.34149   3621492.12345  24618040.752    24618050.092    24618042.977
 98  5 21 15 26  0.0000000  0  8G27G 2G26G 4G15G 7G 9G13
   3875582.38649   2642930.70447  22345959.609    22345968.457    22345961.108
    844591.01849    623424.26347  21645692.509    21645700.478    21645693.672
    943962.71749    734077.30147  22975121.510    22975130.484    22975123.564
  -4015572.02049  -2859173.85246  24102744.097    24102755.292    24102746.340
   1722020.46049   1280359.17246  24073772.362    24073782.640    24073773.927
     11109.71549     10651.58047  20524694.354    20524703.124    20524696.038
  -4497316.50749  -3491574.74046  24293817.549    24293827.320    24293819.004
   4772858.20049   3703585.89145  24638089.156    24638098.513    24638091.183
 98  5 21 15 26 30.0000000  0  8G27G 2G26G 4G15G 7G 9G13
   3970371.51249   2716792.31547  22363998.012    22364006.180    22363998.970
    868799.57049    642288.07447  21650299.346    21650307.282    21650300.423
    977915.10649    760533.69547  22981582.275    22981591.405    22981584.542
  -4116906.36349  -2938135.59845  24083461.246    24083472.012    24083463.001
   1774399.75749   1321174.18046  24083740.317    24083750.159    24083741.509
     23679.01149     20445.83847  20527086.224    20527094.994    20527087.895
  -4591571.63949  -3565020.26646  24275881.459    24275891.040    24275882.805
   4878181.86249   3785656.15945  24658132.145    24658141.287    24658133.752
 98  5 21 15 27  0.0000000  0  8G27G 2G26G 4G15G 7G 9G13
   4065564.84949   2790968.89147  22382113.125    22382120.980    22382113.758
    893213.79649    661312.15147  21654945.075    21654953.185    21654946.302
   1012372.74249    787383.79547  22988139.640    22988148.448    22988141.668
  -4218154.70849  -3017030.34445  24064194.840    24064204.851    24064196.058
   1827360.67949   1362442.39046  24093818.215    24093828.359    24093819.627
     36742.43749     30625.13347  20529572.260    20529580.850    20529573.814
  -4685666.86049  -3638341.17846  24257975.970    24257985.144    24257977.111
   4983480.63649   3867707.02045  24678170.427    24678179.206    24678171.579
 98  5 21 15 27 30.0000000  0  8G27G 2G26G 4G15G 7G 9G13
   4161146.90749   2865448.36047  22400301.674    22400309.736    22400302.472
    917826.59249    680490.95647  21659628.660    21659636.875    21659629.957
   1047343.51349    814633.72347  22994794.398    22994803.268    22994796.372
  -4319338.92649  -3095875.10345  24044939.442    24044949.897    24044941.334
   1880882.98249   1404148.04846  24104003.391    24104013.293    24104004.693
     50279.91549     41173.81847  20532148.457    20532156.912    20532149.973
  -4779614.73649  -3711547.26746  24240097.793    24240107.432    24240099.438
   5088743.24749   3949729.71245  24698201.414    24698210.289    24698202.556
 98  5 21 15 28  0.0000000  0  8G27G 2G26G 4G15G 7G 9G13
   4257113.54649   2940227.52147  22418563.313    22418571.642    22418564.390
    942638.69249    699825.06347  21664350.203    21664358.485    21664351.579
   1082838.01049    842291.75347  23001548.750    23001557.721    23001550.779
  -4420443.04849  -3174657.48045  24025700.064    24025710.209    24025701.756
   1934974.94449   1446297.59446  24114296.409    24114306.619    24114298.020
     64307.05849     52104.06547  20534817.726    20534826.127    20534819.307
  -4873406.71049  -3784631.87346  24222249.675    24222259.530    24222251.541
   5193977.09649   4031730.00745  24718226.960    24718235.549    24718228.048
 98  5 21 15 28 30.0000000  0  8G27G 2G26G 4G15G 7G 9G13
   4353484.66849   3015321.85247  22436902.599    22436910.480    22436903.302
    967659.73249    719321.97747  21669111.632    21669119.810    21669112.912
   1118854.94549    870356.87147  23008402.734    23008411.504    23008404.600
  -4521440.97249  -3253357.07446  24006480.886    24006490.764    24006482.418
   1989648.50349   1488900.34146  24124700.057    24124710.667    24124702.087
     78825.36549     63417.02847  20537580.503    20537588.853    20537582.062
  -4967033.14149  -3857587.47846  24204433.861    24204443.023    24204434.963
   5299207.56749   4113727.58845  24738251.879    24738260.595    24738252.690
 98  5 21 15 29  0.0000000  0  8G27G 2G26G 4G15G 7G 9G13
   4450219.36649   3090699.49847  22455310.285    22455318.566    22455311.404
    992872.87949    738968.58847  21673909.337    21673917.663    21673910.804
   1155370.27549    898810.36747  23015351.124    23015360.001    23015353.342
  -4622335.77349  -3331976.30946  23987280.908    23987291.077    23987282.726
   2044882.27949   1531939.59346  24135210.856    24135221.497    24135212.727
     93809.55049     75093.02347  20540432.010    20540440.259    20540433.500
  -5060511.53049  -3930427.72946  24186645.215    24186654.703    24186646.575
   5404419.74049   4195711.04045  24758273.349    24758281.526    24758274.141
 98  5 21 15 29 30.0010000  0  8G27G 2G26G 4G15G 7G 9G13
   4547292.76049   3166341.05547  22473782.720    22473791.100    22473783.911
   1018300.54049    758782.35547  21678748.046    21678756.325    21678749.522
   1192373.18149    927643.79147  23022392.797    23022401.419    23022394.844
  -4723129.11349  -3410516.51046  23968100.792    23968110.748    23968102.483
   2100675.14749   1575414.49346  24145828.411    24145838.447    24145829.848
    109245.81049     87121.27647  20543369.320    20543377.682    20543370.903
  -5153837.77149  -4003149.43046  24168885.498    24168895.293    24168887.118
   5509593.32749   4277664.34345  24778286.403    24778295.464    24778287.844
 98  5 21 15 30  0.0010000  0  8G27G 2G26G 4G15G 7G 9G13
   4644708.99449   3242249.76247  22492320.395    22492328.854    22492321.594
   1043956.60749    778774.09747  21683630.196    21683638.424    21683631.700
   1229850.84649    956847.13647  23029524.492    23029533.315    23029526.604
  -4823790.43249  -3488953.80446  23948945.406    23948955.458    23948947.114
   2157034.99749   1619331.22946  24156553.062    24156563.356    24156554.918
    125139.27049     99505.78847  20546393.804    20546402.133    20546395.369
  -5246989.01749  -4075734.73146  24151158.846    24151169.188    24151160.873
   5614710.04149   4359573.33145  24798289.075    24798298.594    24798290.871
 98  5 21 15 30 30.0010000  0  8G27G 2G26G 4G15G 7G 9G13
   4742473.14949   3318429.57846  22510924.326    22510932.826    22510925.516
   1069841.18849    798943.90047  21688555.731    21688564.082    21688557.365
   1267808.17949    986424.24547  23036747.569    23036756.353    23036749.594
  -4924330.35649  -3567296.51146  23929812.931    23929823.338    23929814.879
   2213952.65349   1663682.59146  24167383.454    24167394.412    24167385.959
    141466.59249    112228.37947  20549500.790    20549509.132    20549502.360
  -5339972.12749  -4148189.05846  24133465.259    24133474.977    24133466.719
   5719752.23949   4441424.26745  24818277.996    24818287.563    24818279.927
 98  5 21 15 31  0.0010000  0  8G27G 2G26G 4G15G 7G 9G13
   4840586.09049   3394881.18546  22529594.376    22529603.161    22529595.838
   1095966.97249    819301.65747  21693527.403    21693535.706    21693528.960
   1306263.59049   1016389.48647  23044065.356    23044074.162    23044067.459
  -5024756.25249  -3645550.38346  23910702.771    23910712.838    23910704.444
   2271427.47249   1708468.11846  24178320.305    24178331.711    24178323.008
    158241.94649    125300.09047  20552692.780    20552701.398    20552694.546
  -5432779.81349  -4220506.67346  24115803.881    24115814.234    24115805.967
   5824695.45349   4523198.06345  24838247.758    24838257.612    24838249.921
 98  5 21 15 31 30.0010000  0  8G27G 2G26G 4G15G 7G 9G13
   4939061.89549   3471615.52246  22548334.185    22548342.586    22548335.235
   1122326.65149    839841.66747  21698543.510    21698551.848    21698545.061
   1345211.51749   1046738.50247  23051477.163    23051485.750    23051479.086
  -5125088.93949  -3723731.60846  23891609.839    23891620.152    23891611.731
   2329452.21049   1753682.15546  24189362.449    24189373.455    24189364.795
    175453.61049    138711.77947  20555968.078    20555976.710    20555969.846
  -5525415.29349  -4292690.08946  24098176.173    24098186.307    24098177.963
   5929530.65449   4604887.74745  24858197.347    24858207.163    24858199.519
 98  5 21 15 32  0.0010000  0  8G27G 2G26G 4G15G 7G 9G13
   5037929.64349   3548655.28146  22567148.030    22567156.594    22567149.235
   1148914.56849    860559.51947  21703603.072    21703611.374    21703604.552
   1384666.38249   1077482.52547  23058984.945    23058993.823    23058987.123
  -5225314.72549  -3801829.55446  23872537.294    23872547.762    23872539.358
   2388041.40249   1799336.03046  24200511.804    24200522.617    24200514.070
    193123.10049    152480.21647  20559330.569    20559339.127    20559332.264
  -5617864.62349  -4364728.50146  24080584.248    24080593.638    24080585.507
   6034286.62249   4686515.61345  24878131.997    24878141.645    24878134.002
 98  5 21 15 32 30.0010000  0  8G27G 2G26G 4G15G 7G 9G13
   5137184.46549   3625996.65246  22586035.489    22586044.255    22586036.812
   1175727.62249    881452.80447  21708705.335    21708713.741    21708706.888
   1424638.87749   1108629.90847  23066591.450    23066600.253    23066593.666
  -5325431.20949  -3879842.32346  23853485.453    23853496.117    23853487.752
   2447195.78149   1845430.30545  24211768.771    24211779.204    24211770.752
    211247.45749    166603.09447  20562779.595    20562788.023    20562781.233
  -5710122.84949  -4436617.97546  24063028.201    24063037.385    24063029.403
   6138981.42949   4768095.84045  24898055.101    24898064.934    24898056.950
 98  5 21 15 33  0.0010000  0  8G27G 2G26G 4G15G 7G 9G13
   5236810.93549   3703627.61546  22604993.370    22605002.660    22604995.005
   1202751.41449    902510.30047  21713847.909    21713856.173    21713849.372
   1465106.41449   1140163.03847  23074292.285    23074300.829    23074294.337
  -5425441.81349  -3957772.58846  23834454.001    23834464.678    23834456.261
   2506912.17949   1891962.50946  24223132.746    24223142.923    24223134.299
    229812.27249    181069.18647  20566312.349    20566320.744    20566314.028
  -5802190.71849  -4508359.10546  24045507.689    24045517.385    24045509.416
   6243625.93749   4849636.90845  24917968.337    24917978.342    24917970.232
 98  5 21 15 33 30.0010000  0  8G27G 2G26G 4G15G 7G 9G13
   5336776.82449   3781523.06446  22624016.479    22624025.686    22624017.816
   1229944.12549    923699.42447  21719022.553    21719030.775    21719023.983
   1506023.40549   1172046.39447  23082078.524    23082087.191    23082080.581
  -5525364.50149  -4035634.33546  23815439.492    23815450.202    23815441.603
   2567160.38749   1938909.14046  24234597.752    24234607.832    24234599.188
    248763.55049    195836.41647  20569918.795    20569927.033    20569920.319
  -5894107.44349  -4579982.51946  24028015.672    24028025.970    24028018.247
   6348206.46749   4931128.05445  24937869.311    24937879.319    24937871.117
 98  5 21 15 34  0.0010000  0  8G27G 2G26G 4G15G 7G 9G13
   5437079.11749   3859680.65146  22643103.692    22643112.690    22643104.673
   1257322.06949    945032.88347  21724232.434    21724240.677    21724233.842
   1547403.73349   1204290.77747  23089952.933    23089961.752    23089955.007
  -5625173.61149  -4113407.60546  23796446.327    23796457.065    23796448.434
   2627949.70449   1986277.38945  24246166.131    24246175.614    24246167.102
    268113.65149    210914.41447  20573600.762    20573609.271    20573602.488
  -5985859.09149  -4651477.24746  24010556.522    24010566.183    24010558.434
   6452733.40649   5012577.51945  24957760.122    24957770.155    24957762.224
 98  5 21 15 34 30.0010000  0  8G27G 2G26G 4G15G 7G 9G13
   5537705.81049   3938091.00946  22662251.875    22662261.457    22662253.253
   1284905.98949    966526.84547  21729481.547    21729489.741    21729482.854
   1589242.70349   1236892.56047  23097914.619    23097923.505    23097916.719
  -5724876.92949  -4191098.44046  23777473.377    23777484.007    23777475.487
   2689272.39349   2034061.23245  24257834.541    24257844.855    24257836.537
    287859.92349    226301.12147  20577358.577    20577366.939    20577360.132
  -6077455.41549  -4722850.95346  23993126.427    23993135.919    23993128.147
   6557193.53049   5093974.84245  24977638.630    24977648.519    24977640.320
 98  5 21 15 35  0.0010000  0  8G27G 2G26G 4G15G 7G 9G13
   5638665.01749   4016760.46946  22681463.477    22681473.490    22681465.167
   1312709.38249    988191.81947  21734772.103    21734780.647    21734773.641
   1631531.68449   1269844.98547  23105961.988    23105970.933    23105964.073
  -5824463.57449  -4268698.34146  23758522.758    23758533.190    23758524.664
   2751127.01149   2082259.59045  24269605.445    24269615.411    24269607.249
    308017.05949    242007.98547  20581194.262    20581202.774    20581195.902
  -6168901.20749  -4794107.39646  23975724.886    23975734.312    23975726.578
   6661578.97449   5175313.98545  24997502.563    24997512.576    24997504.219
 98  5 21 15 35 30.0010000  0  8G27G 2G26G 4G15G 7G 9G13
   5739944.71149   4095679.64446  22700735.989    22700746.518    22700738.113
   1340743.27749   1010036.40547  21740106.617    21740115.387    21740108.275
   1674271.68449   1303148.84747  23114094.871    23114104.208    23114097.185
  -5923933.80749  -4346207.56846  23739593.851    23739604.507    23739596.175
   2813502.51749   2130863.83545  24281474.360    24281485.191    24281476.891
    328606.95949    258052.06447  20585112.287    20585120.983    20585114.046
  -6260201.59149  -4865250.49446  23958351.019    23958360.363    23958352.704
   6765863.57649   5256574.59045  25017347.421    25017357.476    25017349.223
 98  5 21 15 36  0.0010000  0  8G27G 2G26G 4G15G 7G 9G13
   5841554.39149   4174855.96446  22720071.512    22720082.299    22720073.855
   1369023.51549   1032072.94947  21745487.949    21745496.987    21745489.793
   1717473.72449   1336812.73847  23122316.313    23122325.311    23122318.267
  -6023270.11949  -4423612.39546  23720690.972    23720701.275    23720693.122
   2876406.01249   2179879.49145  24293444.189    24293455.412    24293446.996
    349662.88149    274459.27647  20589119.049    20589127.749    20589120.844
  -6351326.77049  -4936257.08246  23941010.728    23941019.826    23941012.179
   6870040.90649   5337751.54345  25037171.710    25037182.145    25037173.395
 98  5 21 15 36 30.0010000  0  8G27G 2G26G 4G15G 7G 9G13
   5943494.71949   4254289.92546  22739470.487    22739480.913    22739472.559
   1397532.22349   1054287.51847  21750913.042    21750922.017    21750914.790
   1761119.35049   1370822.30047  23130621.659    23130630.758    23130623.724
  -6122471.38649  -4500912.02746  23701813.510    23701823.797    23701815.749
   2939826.68249   2229298.13946  24305513.415    24305524.283    24305515.604
    371170.05749    291218.11147  20593211.676    20593220.406    20593213.531
  -6442288.16849  -5007136.04246  23923701.084    23923710.453    23923702.711
   6974100.31049   5418836.67045  25056973.948    25056983.910    25056975.437
 98  5 21 15 37  0.0010000  0  8G27G 2G26G 4G15G 7G 9G13
   6045770.94349   4333985.63346  22758933.350    22758943.430    22758935.262
   1426258.92449   1076671.95347  21756379.585    21756388.525    21756381.354
   1805220.27849   1405186.63747  23139013.615    23139022.810    23139015.838
  -6221527.10749  -4578098.24446  23682963.356    23682973.938    23682966.023
   3003773.56449   2279126.82946  24317682.333    24317693.101    24317684.428
    393119.67049    308321.70547  20597388.694    20597397.223    20597390.449
  -6533067.48249  -5077873.13446  23906426.089    23906435.594    23906427.819
   7078055.43349   5499840.49645  25076756.304    25076766.081    25076757.603
 98  5 21 15 37 30.0010000  0  8G27G 2G26G 4G15G 7G 9G13
   6148374.86149   4413936.68546  22778458.296    22778468.212    22778460.231
   1455186.01049   1099212.52647  21761884.405    21761893.150    21761886.054
   1849768.72549   1439899.69147  23147490.932    23147500.069    23147493.142
  -6320459.94349  -4655188.69346  23664137.486    23664147.593    23664139.670
   3068238.02049   2329358.80946  24329949.828    24329960.155    24329951.581
    415490.05349    325753.17047  20601645.678    20601654.044    20601647.356
  -6623668.61449  -5148471.38146  23889184.594    23889194.507    23889186.958
   7181889.81049   5580750.23645  25096515.718    25096524.919    25096516.857
 98  5 21 15 38  0.0010000  0  8G27G 2G26G 4G15G 7G 9G13
   6251299.23749   4494137.44246  22798044.207    22798053.988    22798046.196
   1484284.08449   1121886.34147  21767421.749    21767430.294    21767423.265
   1894748.94449   1474949.17947  23156050.455    23156059.593    23156052.632
  -6419279.79449  -4732191.10746  23645331.611    23645342.639    23645334.643
   3133208.41649   2379985.02446  24342313.468    24342323.617    24342315.048
    438251.52149    343489.37947  20605977.062    20605985.358    20605978.665
  -6714099.37049  -5218936.86546  23871976.737    23871985.963    23871978.515
   7285603.78949   5661566.13245  25116251.335    25116261.546    25116252.757
 98  5 21 15 38 30.0010000  0  8G27G 2G26G 4G15G 7G 9G13
   6354530.76349   4574577.54546  22817688.943    22817698.232    22817690.559
   1513550.06049   1144690.98347  21772990.970    21772999.418    21772992.425
   1940158.20249   1510332.99047  23164691.329    23164700.722    23164693.768
  -6518005.30549  -4809120.02546  23626545.034    23626555.666    23626547.719
   3198682.27249   2431003.54846  24354772.837    24354782.999    24354774.367
    461398.44749    361525.94047  20610381.662    20610390.016    20610383.329
  -6804364.59949  -5289273.34546  23854799.353    23854809.150    23854801.574
   7389205.70049   5742294.73445  25135966.800    25135976.530    25135968.004
 98  5 21 15 39  0.0010000  0  8G27G 2G26G 4G15G 7G 9G13
   6458057.54149   4655247.71546  22837389.180    22837398.776    22837391.083
   1542990.94749   1167631.92247  21778593.413    21778601.816    21778594.822
   1985996.63649   1546051.22847  23173414.073    23173423.489    23173416.564
  -6616634.44949  -4885973.83146  23607776.515    23607787.212    23607779.258
   3264652.99249   2482409.25846  24367327.543    24367336.827    24367328.217
    484943.30549    379872.58247  20614862.101    20614870.395    20614863.771
  -6894452.23849  -5359471.46346  23837656.405    23837665.942    23837658.317
   7492683.24049   5822926.44245  25155657.975    25155667.640    25155659.281
 98  5 21 15 39 30.0010000  0  8G27G 2G26G 4G15G 7G 9G13
   6561893.40949   4736158.72046  22857148.087    22857158.168    22857150.386
   1572627.46049   1190725.30247  21784232.919    21784241.470    21784234.412
   2032275.11249   1582112.34247  23182220.846    23182230.084    23182223.123
  -6715127.44549  -4962721.57146  23589033.918    23589044.677    23589036.610
   3331134.58649   2534213.04546  24379978.295    24379987.880    24379979.384
    508919.70249    398555.48147  20619424.578    20619432.953    20619426.259
  -6984334.59849  -5429509.62646  23820551.647    23820561.869    23820554.242
   7596049.10549   5903471.10245  25175328.148    25175337.809    25175329.488
 98  5 21 15 40  0.0010000  0  8G27G 2G26G 4G15G 7G 9G13
   6666020.82349   4817296.92146  22876963.309    22876972.997    22876965.143
   1602452.30049   1213965.42747  21789908.537    21789916.932    21789909.859
   2078988.25049   1618512.15547  23191110.135    23191119.405    23191112.394
  -6813475.73449  -5039356.55546  23570318.878    23570329.670    23570321.447
   3398112.86349   2586403.85046  24392723.520    24392733.425    24392724.973
    533310.82649    417561.55947  20624066.044    20624074.466    20624067.791
  -7074015.48449  -5499390.78946  23803485.580    23803496.100    23803488.479
   7699303.40049   5983928.88945  25194977.085    25194986.468    25194978.448
 98  5 21 15 40 30.0010000  0  8G27G 2G26G 4G15G 7G 9G13
   6770441.24249   4898663.43046  22896834.299    22896843.506    22896835.717
   1632476.13649   1237360.61747  21795621.796    21795630.259    21795623.229
   2126120.18849   1655238.30947  23200079.066    23200088.312    23200081.314
  -6911678.58049  -5115878.19146  23551630.958    23551642.334    23551633.942
   3465577.32449   2638973.49845  24405561.769    24405571.503    24405562.943
    558100.67349    436878.31947  20628783.548    20628791.914    20628785.198
  -7163501.43549  -5569120.06146  23786457.425    23786467.478    23786459.814
   7802423.56849   6064282.01245  25214600.249    25214610.090    25214601.402
 98  5 21 15 41  0.0010000  0  8G27G 2G26G 4G15G 7G 9G13
   6875164.22849   4980265.71546  22916762.230    22916771.610    22916763.885
   1662701.49049   1260912.83347  21801373.375    21801381.944    21801374.954
   2173673.99549   1692293.18747  23209128.232    23209137.465    23209130.532
  -7009716.00949  -5192270.95046  23532975.501    23532986.424    23532978.070
   3533527.83749   2691921.89445  24418491.806    24418502.253    24418493.481
    583268.35549    456489.50347  20633572.818    20633581.251    20633574.486
  -7252790.85449  -5638696.17346  23769466.756    23769476.289    23769468.505
   7905396.55549   6144520.56245  25234195.001    25234205.101    25234196.565
 98  5 21 15 41 30.0010000  0  8G27G 2G26G 4G15G 7G 9G13
   6980182.70149   5062098.23046  22936746.954    22936756.027    22936748.317
   1693110.71549   1284608.32447  21807160.142    21807168.599    21807161.649
   2221637.85849   1729667.59547  23218255.555    23218264.771    23218257.825
  -7107603.22649  -5268546.65746  23514348.292    23514359.051    23514350.704
   3601958.56349   2745244.48745  24431513.543    24431524.158    24431515.273
    608789.21249    476375.88247  20638429.106    20638437.703    20638430.813
  -7341897.15649  -5708129.61546  23752509.808    23752519.946    23752512.047
   8008219.44349   6224642.15545  25253761.904    25253771.619    25253763.079
 98  5 21 15 42  0.0010000  0  7G27G 2G26G 4G15G 7G 9
   7085501.11349   5144164.49246  22956788.385    22956797.528    22956789.751
   1723717.72849   1308457.93747  21812984.308    21812992.878    21812985.934
   2270006.57649   1767357.47247  23227459.764    23227469.112    23227462.075
  -7205347.43049  -5344710.91046  23495747.727    23495759.010    23495750.419
   3670871.90449   2798943.13745  24444627.494    24444637.784    24444629.133
    634664.76049    496538.64847  20643352.836    20643361.688    20643354.718
  -7430821.11849  -5777420.95946  23735587.905    23735598.281    23735590.209
 98  5 21 15 42 30.0010000  0  7G27G 2G26G 4G15G 7G 9
   7191106.26049   5226454.15246  22976883.438    22976893.695    22976885.755
   1754509.95449   1332451.87047  21818843.963    21818852.467    21818845.498
   2318762.21449   1805348.84647  23236738.186    23236747.089    23236740.016
  -7302961.91349  -5420774.09046  23477172.677    23477183.500    23477174.914
   3740258.24249   2853010.33545  24457831.171    24457841.600    24457832.913
    660900.89449    516982.38247  20648345.452    20648354.301    20648347.351
  -7519570.82249  -5846576.52946  23718699.590    23718709.767    23718701.644
 98  5 21 15 43  0.0010000  0  7G27G 2G26G 4G15G 7G 9
   7296986.89049   5308958.50146  22997031.946    22997042.162    22997034.300
   1785475.53649   1356580.88347  21824736.682    21824745.040    21824738.065
   2367922.37749   1843655.43947  23246093.091    23246101.947    23246094.892
  -7400437.35349  -5496728.93846  23458623.483    23458634.451    23458625.927
   3810118.29149   2907446.68345  24471125.356    24471135.518    24471127.114
    687510.60649    537717.21847  20653409.235    20653418.013    20653411.079
  -7608139.46449  -5915590.99946  23701845.592    23701855.659    23701847.533
 98  5 21 15 43 30.0010000  0  7G27G 2G26G 4G15G 7G 9
   7403138.49949   5391673.98646  23017232.092    23017242.247    23017234.404
   1816626.01749   1380853.97847  21830664.268    21830672.787    21830665.849
   2417480.74749   1882272.32647  23255523.687    23255532.634    23255525.561
  -7497768.94949  -5572571.69046  23440101.665    23440112.702    23440104.303
   3880449.12449   2962249.90445  24484509.377    24484519.070    24484510.722
    714512.19849    558757.41847  20658547.548    20658556.227    20658549.372
  -7696522.10349  -5984460.54346  23685027.308    23685036.878    23685028.808
 98  5 21 15 44  0.0010000  0  7G27G 2G26G 4G15G 7G 9
   7509555.31849   5474596.12346  23037482.576    23037492.618    23037484.898
   1847967.60049   1405275.98047  21836628.318    21836636.921    21836629.972
   2467443.27549   1921204.12847  23265030.695    23265040.163    23265033.133
  -7594947.00049  -5648294.80146  23421609.139    23421620.202    23421611.937
   3951245.79249   3017416.09245  24497981.467    24497991.391    24497982.877
    741905.29149    580102.67847  20663760.422    20663768.900    20663762.131
  -7784712.48949  -6053180.28246  23668245.146    23668254.684    23668246.782
 98  5 21 15 44 30.0010000  0  7G27G 2G26G 4G15G 7G 9
   7616225.99449   5557716.08646  23057781.747    23057791.416    23057783.656
   1879480.41049   1429831.40647  21842625.252    21842633.582    21842626.676
   2517818.41149   1960457.45647  23274616.793    23274626.243    23274619.233
  -7691965.98849  -5723893.96646  23403147.667    23403158.054    23403149.872
   4022498.61749   3072937.69245  24511540.418    24511550.445    24511541.874
    769671.23149    601738.47047  20669044.165    20669052.547    20669045.840
  -7872721.21449  -6121758.44646  23651496.904    23651507.167    23651499.266
 98  5 21 15 45  0.0010000  0  7G27G 2G26G 4G15G 7G 9
   7723147.49149   5641031.47646  23078128.170    23078137.922    23078130.198
   1911175.97849   1454529.24047  21848656.509    21848665.023    21848658.143
   2568598.73349   2000026.51447  23284280.496    23284289.496    23284282.464
  -7788818.07049  -5799363.07446  23384717.475    23384727.709    23384719.560
   4094208.27349   3128815.28545  24525186.096    24525196.308    24525187.842
    797797.50349    623655.03847  20674396.362    20674404.789    20674398.134
  -7960548.43149  -6190195.19946  23634783.781    23634794.117    23634786.301
 98  5 21 15 45 30.0010000  0  7G27G 2G26G 4G15G 7G 9
   7830325.44249   5724546.70946  23098523.719    23098533.305    23098525.497
   1943070.41349   1479382.03247  21854725.863    21854734.374    21854727.465
   2619771.70749   2039901.52847  23294018.609    23294027.410    23294020.342
  -7885506.71049  -5874704.83346  23366317.935    23366328.408    23366320.369
   4166382.25149   3185054.68845  24538920.858    24538930.609    24538922.285
    826288.26649    645855.62647  20679818.081    20679826.442    20679819.793
  -8048194.72649  -6258490.96346  23618105.207    23618115.632    23618107.776
 98  5 21 15 46  0.0010000  0  7G27G 2G26G 4G15G 7G 9
   7937762.97949   5808264.22046  23118968.474    23118977.999    23118970.289
   1975148.68749   1504378.07547  21860830.280    21860838.669    21860831.810
   2671332.46749   2080078.70947  23303830.230    23303839.147    23303832.012
  -7982047.07749  -5949931.04246  23347947.321    23347957.390    23347949.337
   4239020.14449   3241655.58445  24552743.501    24552753.187    24552744.817
    855143.61449    668340.31147  20685309.187    20685317.492    20685310.790
  -8135669.77449  -6326653.27646  23601459.181    23601469.591    23601461.798
 98  5 21 15 46 30.0010000  0  7G27G 2G26G 4G15G 7G 9
   8045445.46749   5892172.59646  23139459.299    23139469.311    23139461.576
   2007404.09049   1529512.14347  21866968.353    21866976.713    21866969.900
   2723241.93549   2120527.59647  23313708.195    23313717.297    23313709.996
  -8078458.19149  -6025056.53946  23329600.920    23329610.947    23329602.942
   4312105.06649   3298604.82945  24566650.469    24566660.858    24566652.331
    884356.75649    691103.79547  20690868.164    20690876.592    20690869.842
  -8222995.83349  -6394699.52146  23584841.632    23584851.934    23584844.260
 98  5 21 15 47  0.0010000  0  7G27G 2G26G 4G15G 7G 9
   8153389.69349   5976284.90646  23160000.906    23160010.499    23160002.671
   2039854.13149   1554797.87447  21873143.553    21873151.822    21873145.012
   2775498.07649   2161246.65247  23323651.747    23323661.287    23323654.038
  -8174745.19549  -6100085.33546  23311278.192    23311288.123    23311280.090
   4385644.67449   3355908.34345  24580644.889    24580655.160    24580646.557
    913944.34149    714159.05247  20696498.358    20696506.967    20696500.142
  -8310153.68249  -6462614.66946  23568256.156    23568266.296    23568258.681
 98  5 21 15 47 30.0010000  0  7G27G 2G26G 4G15G 7G 9
   8261606.60449   6060609.73046  23180593.849    23180603.466    23180595.697
   2072499.15149   1580235.53447  21879355.735    21879364.028    21879357.184
   2828116.47149   2202247.96946  23333664.794    23333674.238    23333667.046
  -8270907.43549  -6175016.91346  23292978.587    23292989.021    23292980.962
   4459638.87749   3413566.11945  24594725.517    24594735.915    24594727.187
    943910.79749    737509.53147  20702200.874    20702209.452    20702202.601
  -8397135.42349  -6530392.60246  23551704.028    23551714.167    23551706.547
 98  5 21 15 48  0.0010000  0  7G27G 2G26G 4G15G 7G 9
   8370084.07749   6145137.56346  23201236.400    23201246.124    23201238.306
   2105341.17749   1605826.71147  21885605.271    21885613.650    21885606.801
   2881092.99749   2243528.35447  23343746.062    23343755.397    23343748.199
  -8366933.92249  -6249842.70146  23274705.147    23274715.811    23274707.688
   4534072.21949   3471566.07345  24608889.621    24608900.232    24608891.514
    974234.71949    761138.55647  20707971.323    20707979.947    20707973.086
  -8483933.29949  -6598027.24946  23535186.797    23535197.068    23535189.463
 98  5 21 15 48 30.0010000  0  7G27G 2G26G 4G15G 7G 9
   8478820.55649   6229867.21146  23221928.429    23221938.072    23221930.116
   2138388.87849   1631578.14647  21891893.996    21891902.463    21891895.588
   2934442.00549   2285098.97046  23353897.981    23353907.405    23353900.169
  -8462798.04849  -6324541.98146  23256462.852    23256473.383    23256465.364
   4608948.17049   3529910.90345  24623138.871    24623148.744    24623139.965
   1004906.45549    785038.60047  20713807.711    20713816.548    20713809.682
  -8570519.27149  -6665496.78246  23518710.361    23518720.327    23518712.657
 98  5 21 15 49  0.0010000  0  7G27G 2G26G 4G15G 7G 9
   8587824.50949   6314805.28246  23242671.066    23242680.983    23242672.907
   2171639.37749   1657487.60747  21898221.380    21898229.905    21898222.991
   2988187.53849   2326978.57246  23364125.739    23364134.848    23364127.677
  -8558485.04849  -6399103.24146  23238253.976    23238264.666    23238256.651
   4684271.80449   3588604.60345  24637472.664    24637482.414    24637473.432
   1035920.00949    809204.99947  20719709.337    20719718.192    20719711.375
  -8656877.06549  -6732788.51846  23502276.816    23502286.980    23502279.289
 98  5 21 15 49 30.0010000  0  7G27G 2G26G 4G15G 7G 9
   8697072.10049   6399933.21046  23263460.489    23263470.192    23263462.223
   2205083.78649   1683548.16747  21904585.754    21904594.237    21904587.305
   3042314.79249   2369155.63446  23374425.859    23374434.887    23374427.844
  -8653976.01649  -6473511.74746  23220082.750    23220093.157    23220085.258
   4760033.31649   3647639.48745  24651889.471    24651899.415    24651890.492
   1067266.78849    833631.04747  20725674.572    20725683.239    20725676.495
  -8743015.95949  -6799909.67846  23485885.194    23485895.246    23485887.578
 98  5 21 15 50  0.0010000  0  7G27G 2G26G 4G15G 7G 9
   8806558.58049   6485247.27946  23284295.119    23284304.878    23284296.910
   2238709.32649   1709749.87247  21910984.377    21910992.993    21910986.049
   3096821.60849   2411628.44146  23384798.285    23384807.233    23384800.230
  -8749259.26249  -6547758.39246  23201950.445    23201961.223    23201953.462
   4836233.41149   3707016.16445  24666390.081    24666399.937    24666390.912
   1098956.67649    858324.46447  20731704.865    20731713.600    20731706.903
  -8828926.26749  -6866852.71446  23469537.060    23469547.011    23469539.297
 98  5 21 15 50 30.0010000  0  7G27G 2G26G 4G15G 7G 9
   8916290.18149   6570752.37046  23305175.962    23305186.181    23305178.201
   2272495.68949   1736076.89247  21917413.837    21917422.391    21917415.401
   3151708.82049   2454397.66546  23395242.683    23395251.941    23395244.945
  -8844332.15049  -6621841.11946  23183858.943    23183869.369    23183861.694
   4912877.45549   3766738.71445  24680975.238    24680984.800    24680975.925
   1131003.87649    883296.30547  20737803.336    20737812.014    20737805.254
  -8914608.96949  -6933618.41646  23453231.865    23453242.059    23453234.331
 98  5 21 15 51  0.0010000  0  7G27G 2G26G 4G15G 7G 9
   9026247.15149   6656433.04146  23326099.896    23326110.445    23326102.298
   2306434.15649   1762522.43247  21923872.111    21923880.684    21923873.670
   3206946.61949   2497440.07446  23405754.069    23405763.372    23405756.345
  -8939208.39349  -6695770.60446  23165804.604    23165815.043    23165807.274
   4989950.18049   3826795.32445  24695640.590    24695651.216    24695642.352
   1163412.10049    908549.46247  20743970.324    20743979.066    20743972.284
  -9000086.51249  -7000224.24546  23436966.192    23436976.153    23436968.443
 98  5 21 15 51 30.0010000  0  7G27G 2G26G 4G15G 7G 9
   9136445.04149   6742301.45546  23347070.690    23347080.469    23347072.336
   2340545.07249   1789102.35447  21930363.270    21930371.779    21930364.753
   3262549.22949   2540766.76146  23416335.223    23416344.246    23416337.163
  -9033869.54849  -6769532.50246  23147791.093    23147801.497    23147793.811
   5067464.75049   3887196.20245  24710391.320    24710401.622    24710393.008
   1196204.96349    934102.33247  20750210.694    20750219.344    20750212.579
  -9085334.36049  -7066651.09746  23420744.556    23420753.971    23420746.262
 98  5 21 15 52  0.0010000  0  7G27G 2G26G 4G15G 7G 9
   9246890.86549   6828363.08246  23368087.192    23368097.660    23368089.520
   2374844.05749   1815828.82147  21936889.969    21936898.700    21936891.599
   3318513.00349   2584374.85446  23426984.667    23426993.790    23426986.703
  -9128320.23949  -6843130.37546  23129817.627    23129828.121    23129820.357
   5145418.78649   3947939.55745  24725225.659    24725235.667    24725227.133
   1229372.56149    959947.20947  20756522.583    20756530.971    20756524.213
  -9170343.55249  -7132891.98246  23404567.742    23404577.104    23404569.493
 98  5 21 15 52 30.0010000  0  7G27G 2G26G 4G15G 7G 9
   9357566.26449   6914603.58146  23389147.718    23389158.545    23389150.448
   2409344.52949   1842712.28847  21943455.187    21943463.980    21943456.797
   3374817.41649   2628248.38346  23437699.145    23437708.104    23437701.130
  -9222573.54349  -6916574.46146  23111881.714    23111892.197    23111884.524
   5223798.81849   4009014.83145  24740140.751    24740151.018    24740142.499
   1262895.98849    986069.35647  20762901.820    20762910.246    20762903.543
  -9255121.16649  -7198952.43446  23388435.135    23388444.188    23388436.820
 98  5 21 15 53  0.0010000  0  7G27G 2G26G 4G15G 7G 9
   9468476.06549   7001026.73246  23410253.360    23410263.943    23410255.998
   2444079.47249   1869778.46147  21950065.042    21950073.898    21950066.648
   3431470.92649   2672393.93446  23448480.019    23448488.831    23448481.974
  -9316619.64449  -6989857.09746  23093985.479    23093995.694    23093988.151
   5302611.53049   4070427.20945  24755137.898    24755148.693    24755140.029
   1296769.73049   1012464.47447  20769347.807    20769356.183    20769349.531
  -9339660.82849  -7264827.48346  23372347.684    23372356.500    23372349.496
 98  5 21 15 53 30.0010000  0  7G27G 2G26G 4G15G 7G 9
   9579610.92349   7087625.25946  23431401.336    23431412.149    23431404.358
   2479040.68249   1897020.94247  21956718.011    21956726.855    21956719.571
   3488477.00049   2716814.21546  23459328.015    23459336.815    23459329.950
  -9410461.13449  -7062980.28246  23076128.194    23076138.090    23076130.682
   5381848.95749   4132170.62145  24770216.443    24770227.098    24770218.521
   1330960.62749   1039106.72447  20775854.198    20775862.517    20775855.892
  -9423964.06949  -7330518.28546  23356304.856    23356313.990    23356307.221
 98  5 21 15 54  0.0010000  0  7G27G 2G26G 4G15G 7G 9
   9690956.28849   7174387.79746  23452590.156    23452600.491    23452592.726
   2514223.33449   1924435.98447  21963413.043    21963421.904    21963414.612
   3545826.73049   2761502.27846  23470241.154    23470250.072    23470243.333
  -9504096.15849  -7135942.58846  23058310.183    23058319.786    23058312.527
   5461509.70149   4194243.83645  24785374.803    24785386.121    24785377.422
   1365465.43049   1065993.58247  20782420.409    20782428.553    20782421.978
  -9508038.53449  -7396030.83046  23340306.095    23340315.060    23340308.395
 98  5 21 15 54 30.0010000  0  7G27G 2G26G 4G15G 7G 9
   9802498.18749   7261303.49646  23473816.242    23473826.240    23473818.557
   2549597.94649   1952000.59647  21970144.768    21970153.549    21970146.184
   3603512.77049   2806452.39746  23481218.720    23481227.449    23481220.646
  -9597544.67449  -7208759.55646  23040527.694    23040537.078    23040529.788
   5541577.81849   4256634.53245  24800611.227    24800622.711    24800614.020
   1400274.86249   1093117.81047  20789044.230    20789052.639    20789045.937
  -9591904.37949  -7461380.81946  23324346.992    23324355.794    23324349.254
 98  5 21 15 55  0.0010000  0  7G27G 2G26G 4G15G 7G 9
   9914260.72649   7348391.11146  23495084.325    23495093.980    23495086.377
   2585175.82749   1979723.59847  21976914.556    21976923.830    21976916.395
   3661571.78349   2851693.14446  23492267.520    23492275.805    23492268.942
  -9690768.21249  -7281401.22946  23022787.880    23022797.143    23022789.940
   5622075.54049   4319359.98645  24815929.229    24815941.165    24815932.246
   1435411.73949   1120497.19247  20795730.295    20795739.014    20795732.211
  -9675536.96649  -7526549.05546  23308432.677    23308441.086    23308434.508
 98  5 21 15 55 30.0010000  0  7G27G 2G26G 4G15G 7G 9
  10026235.92949   7435644.44246  23516392.866    23516402.124    23516394.660
   2620948.65649   2007598.50947  21983722.093    21983731.152    21983723.769
   3719997.89949   2897219.94046  23503385.509    23503394.078    23503387.112
  -9783771.22949  -7353871.05446  23005089.413    23005099.238    23005091.990
   5702993.72649   4382413.13145  24831327.475    24831339.698    24831330.282
   1470893.36449   1148145.20947  20802482.370    20802491.068    20802484.170
  -9758924.18849  -7591526.07146  23292564.312    23292573.121    23292566.376
 98  5 21 15 56  0.0010000  0  7G27G 2G26G 4G15G 7G 9
  10138434.23449   7523071.61946  23537743.610    23537752.802    23537745.273
   2656919.60649   2035627.80847  21990567.082    21990576.178    21990568.909
   3778778.30049   2943022.81846  23514571.267    23514579.703    23514572.654
  -9876556.60949  -7426171.30146  22987432.984    22987442.733    22987435.413
   5784327.63249   4445790.14645  24846804.944    24846817.187    24846807.682
   1506734.15649   1176073.09647  20809302.641    20809311.425    20809304.457
  -9842061.76249  -7656308.57846  23276743.586    23276752.574    23276745.804
